Location: ???????????
(55.5758°N, 38.4970°E)
Time: 19:09:41
(UTC+00:00)

Cosmos 1939 Rocket - Pass Details

Date: 15 November 2025
Orbit: 491 x 528 km, 97.5° (Epoch: 14 December)

Event Time Altitude Azimuth Distance (km) Brightness Sun altitude
Rises 01:47:00 0° 18° (NNE) 2,687 6.6 -26.9°
Reaches altitude 10° 01:49:12 10° 25° (NNE) 1,789 5.8 -26.6°
Maximum altitude 01:52:55 44° 99° (E) 739 3.8 -26.1°
Enters shadow 01:53:42 38° 133° (SE) 814 3.9 -26.0°
